TAP129 GMMN-LPPR

Flight info

Callsign TAP129
Flight time N/A
Altitude 38000
Route LAKAM UR722 AMSEL DCT ABLEG
Aircraft A320/M-SDE3FGHIRWY/LB1

Departure

Time 2026-05-07 16:40
Airport Mohammed V International Airport (GMMN)

Arrival

Time N/A
Airport Francisco de Sá Carneiro Airport (LPPR)
Time Latitude Longitude Altitude Speed Heading
2026-05-07 15:59 33.37256 -7.58220 650 ft 0 kts 75°
2026-05-07 16:22 33.37252 -7.58237 649 ft 2 kts 75°
2026-05-07 16:22 33.37248 -7.58257 649 ft 2 kts 75°
2026-05-07 16:23 33.37244 -7.58277 651 ft 2 kts 75°
2026-05-07 16:23 33.37242 -7.58296 653 ft 2 kts 99°
2026-05-07 16:23 33.37247 -7.58315 651 ft 2 kts 140°
2026-05-07 16:23 33.37249 -7.58318 650 ft 0 kts 152°
2026-05-07 16:28 33.37246 -7.58317 651 ft 3 kts 154°
2026-05-07 16:28 33.37135 -7.58282 650 ft 14 kts 165°
2026-05-07 16:29 33.37075 -7.58262 650 ft 10 kts 164°
2026-05-07 16:29 33.36968 -7.58230 651 ft 16 kts 189°
2026-05-07 16:29 33.36939 -7.58282 653 ft 8 kts 250°
2026-05-07 16:29 33.36919 -7.58357 651 ft 10 kts 254°
2026-05-07 16:30 33.36893 -7.58441 652 ft 15 kts 233°
2026-05-07 16:30 33.36794 -7.58444 651 ft 15 kts 164°
2026-05-07 16:30 33.36699 -7.58412 653 ft 14 kts 164°
2026-05-07 16:30 33.36609 -7.58380 653 ft 13 kts 162°
2026-05-07 16:31 33.36521 -7.58347 652 ft 14 kts 162°
2026-05-07 16:31 33.36428 -7.58313 653 ft 14 kts 163°
2026-05-07 16:31 33.36321 -7.58276 653 ft 24 kts 166°
2026-05-07 16:31 33.36139 -7.58218 654 ft 27 kts 164°
2026-05-07 16:32 33.35964 -7.58156 656 ft 26 kts 163°
2026-05-07 16:32 33.35797 -7.58096 655 ft 24 kts 163°
2026-05-07 16:32 33.35639 -7.58042 661 ft 23 kts 165°
2026-05-07 16:32 33.35490 -7.57995 656 ft 21 kts 165°
2026-05-07 16:33 33.35357 -7.57948 657 ft 17 kts 166°
2026-05-07 16:33 33.35277 -7.57966 657 ft 0 kts 220°
2026-05-07 16:34 33.35267 -7.57977 657 ft 8 kts 227°
2026-05-07 16:34 33.35237 -7.58067 657 ft 0 kts 253°
2026-05-07 16:36 33.35232 -7.58085 657 ft 12 kts 253°
2026-05-07 16:36 33.35212 -7.58216 658 ft 16 kts 277°
2026-05-07 16:37 33.35266 -7.58279 659 ft 6 kts 342°
2026-05-07 16:39 33.35279 -7.58284 659 ft 12 kts 342°
2026-05-07 16:39 33.35659 -7.58413 655 ft 97 kts 344°
2026-05-07 16:40 33.36518 -7.58696 743 ft 149 kts 346°
2026-05-07 16:40 33.37559 -7.59016 1415 ft 156 kts 345°
2026-05-07 16:40 33.38620 -7.59368 2196 ft 164 kts 343°
2026-05-07 16:40 33.39761 -7.59869 2679 ft 186 kts 337°
2026-05-07 16:41 33.40996 -7.60621 3189 ft 213 kts 331°
2026-05-07 16:41 33.42276 -7.61673 3928 ft 231 kts 322°
2026-05-07 16:41 33.43499 -7.63012 4701 ft 247 kts 313°
2026-05-07 16:41 33.44589 -7.64631 4986 ft 253 kts 302°
2026-05-07 16:42 33.45541 -7.66389 5969 ft 253 kts 301°
2026-05-07 16:42 33.46525 -7.68174 7100 ft 255 kts 300°
2026-05-07 16:42 33.47513 -7.69957 8128 ft 259 kts 300°
2026-05-07 16:42 33.48524 -7.71775 9179 ft 264 kts 300°
2026-05-07 16:43 33.49558 -7.73619 10131 ft 273 kts 302°
2026-05-07 16:43 33.51016 -7.75253 10572 ft 305 kts 328°
2026-05-07 16:43 33.53147 -7.75952 11019 ft 334 kts 355°
2026-05-07 16:43 33.55511 -7.75961 11784 ft 345 kts 359°
2026-05-07 16:44 33.57931 -7.75875 12677 ft 351 kts 360°
2026-05-07 16:44 33.60397 -7.75750 13574 ft 357 kts 360°
2026-05-07 16:44 33.62895 -7.75621 14366 ft 362 kts 359°
2026-05-07 16:44 33.65433 -7.75505 14764 ft 366 kts 358°
2026-05-07 16:45 33.67997 -7.75406 15267 ft 370 kts 358°
2026-05-07 16:45 33.70570 -7.75320 16107 ft 373 kts 357°
2026-05-07 16:45 33.73180 -7.75242 16925 ft 376 kts 356°
2026-05-07 16:45 33.75813 -7.75168 17713 ft 381 kts 356°
2026-05-07 16:46 33.77574 -7.75118 18229 ft 384 kts 356°
2026-05-07 16:46 33.80259 -7.75038 18896 ft 388 kts 356°
2026-05-07 16:46 33.82974 -7.74958 19556 ft 393 kts 355°
2026-05-07 16:46 33.85726 -7.74877 20221 ft 397 kts 355°
2026-05-07 16:47 33.88502 -7.74792 20875 ft 401 kts 355°
2026-05-07 16:47 33.91307 -7.74701 21529 ft 406 kts 355°
2026-05-07 16:47 33.94141 -7.74611 22167 ft 410 kts 355°
2026-05-07 16:47 33.97004 -7.74524 22788 ft 414 kts 355°
2026-05-07 16:48 33.99898 -7.74437 23409 ft 418 kts 355°
2026-05-07 16:48 34.02822 -7.74347 23934 ft 422 kts 355°
2026-05-07 16:48 34.05768 -7.74253 24485 ft 425 kts 355°
2026-05-07 16:48 34.08735 -7.74157 25038 ft 427 kts 355°
2026-05-07 16:49 34.11700 -7.74061 25592 ft 428 kts 355°
2026-05-07 16:49 34.14690 -7.73965 25872 ft 429 kts 355°
2026-05-07 16:49 34.17671 -7.73870 25946 ft 428 kts 355°
2026-05-07 16:49 34.20648 -7.73841 25958 ft 426 kts 353°
2026-05-07 16:50 34.23601 -7.73961 25976 ft 424 kts 351°
2026-05-07 16:50 34.26540 -7.74184 25958 ft 423 kts 350°
2026-05-07 16:50 34.29470 -7.74454 25958 ft 422 kts 349°
2026-05-07 16:50 34.32400 -7.74728 25959 ft 423 kts 349°
2026-05-07 16:51 34.35332 -7.74980 25959 ft 423 kts 350°
2026-05-07 16:51 34.38275 -7.75209 25958 ft 423 kts 350°
2026-05-07 16:51 34.41213 -7.75420 25959 ft 423 kts 351°
2026-05-07 16:51 34.44153 -7.75619 25959 ft 423 kts 351°
2026-05-07 16:52 34.47093 -7.75814 25959 ft 423 kts 351°
2026-05-07 16:52 34.50034 -7.76010 25979 ft 424 kts 351°
2026-05-07 16:52 34.52985 -7.76210 25962 ft 424 kts 351°
2026-05-07 16:52 34.55926 -7.76414 25966 ft 424 kts 351°
2026-05-07 16:53 34.58880 -7.76623 25959 ft 424 kts 351°
2026-05-07 16:53 34.61828 -7.76832 25959 ft 425 kts 351°
2026-05-07 16:53 34.64776 -7.77038 25959 ft 425 kts 351°
2026-05-07 16:53 34.67726 -7.77245 25960 ft 425 kts 351°
2026-05-07 16:54 34.70679 -7.77451 25959 ft 425 kts 351°
2026-05-07 16:54 34.73629 -7.77655 25961 ft 425 kts 351°
2026-05-07 16:54 34.76577 -7.77870 25963 ft 425 kts 350°
2026-05-07 16:54 34.79539 -7.78110 26192 ft 429 kts 350°
2026-05-07 16:55 34.82521 -7.78363 26758 ft 431 kts 350°
2026-05-07 16:55 34.85518 -7.78622 27290 ft 433 kts 349°
2026-05-07 16:55 34.88538 -7.78882 27816 ft 435 kts 349°
2026-05-07 16:55 34.91567 -7.79142 28317 ft 438 kts 349°
2026-05-07 16:56 34.94613 -7.79403 28816 ft 440 kts 349°
2026-05-07 16:56 34.97685 -7.79663 29297 ft 443 kts 349°
2026-05-07 16:56 35.03872 -7.80179 30209 ft 449 kts 350°
2026-05-07 16:57 35.06994 -7.80442 30610 ft 451 kts 349°
2026-05-07 16:57 35.10132 -7.80704 31010 ft 453 kts 349°
2026-05-07 16:57 35.13279 -7.80965 31481 ft 451 kts 349°
2026-05-07 16:57 35.16341 -7.81207 32702 ft 431 kts 349°
2026-05-07 16:58 35.19273 -7.81435 33984 ft 411 kts 348°
2026-05-07 16:58 35.22056 -7.81651 35096 ft 390 kts 347°
2026-05-07 16:58 35.24720 -7.81865 35945 ft 379 kts 347°
2026-05-07 16:58 35.27339 -7.82093 36474 ft 377 kts 346°
2026-05-07 16:59 35.29957 -7.82334 36856 ft 377 kts 345°
2026-05-07 16:59 35.32577 -7.82576 37175 ft 379 kts 346°
2026-05-07 16:59 35.35210 -7.82811 37495 ft 380 kts 346°
2026-05-07 16:59 35.37854 -7.83043 37793 ft 382 kts 346°
2026-05-07 17:00 35.40524 -7.83273 37938 ft 388 kts 346°
2026-05-07 17:00 35.43248 -7.83511 37962 ft 397 kts 346°
2026-05-07 17:00 35.48882 -7.84026 37964 ft 414 kts 346°
2026-05-07 17:01 35.54716 -7.84558 37953 ft 424 kts 346°
2026-05-07 17:01 35.60622 -7.85077 37953 ft 426 kts 347°
2026-05-07 17:02 35.66532 -7.85597 37952 ft 426 kts 346°